sat.trackr.live / text

‹ back to catalog

STARLINK-4040

NORAD 53151 · 2022-083V

PAYLOAD ACTIVE UNKNOWN

§ Identity

Operator
Country
US
Launch date
2022-07-17
Launch site
AFETR
Launch vehicle
Mass (kg)
RCS (m²)

Purposes: comms

External: N2YO · Heavens-Above · Gunter

§ Orbital elements

Epoch: 2026-09-19T22:34:01.248672Z

Period
93.79 min
Inclination
53.1615°
Eccentricity
0.0001221
Mean motion
15.35403198 rev/d
Perigee alt
458.9 km
Apogee alt
460.6 km
Semi-major
6,837.9 km
B*
2.0557e-5
RAAN
359.4130°
Arg perigee
64.9354°
Mean anomaly
295.1775°
Rev number
23,085

§ Raw data

STARLINK-40401 53151U 22083V   26262.94029223  .00000337  00000+0  20557-4 0  99942 53151  53.1615 359.4130 0001221  64.9354 295.1775 15.35403198230853

JSON: /api/v1/satellites/53151 · /tle

For live sub-satellite position, see the globe view (requires WebGL).

§ Visibility from observer

Set your observer location to see the next 7 days of passes ≥ 10°. The values pass through the URL so the page stays shareable.

No JS? Fill the form by hand. The geolocation button needs JavaScript.